Date String (YYYY-MM-DD hh:mm:ss) UTC,Instrument flags,absolute air pressure of the measurement (hPa),sample flow rate (lpm),inlet stack bypass flow (lpm),air temperature of the measurement (°C),ambient temperature measured by the external sensor (°C),aerosol sample conditioner tube jacket temperature (°C),OPC LED temperature (°C),internal box temperature (°C),relative humidity of the measurement (%),span deviation,mass concentration of particles derived from Lorenz-Mie calculation of OPC scattering (μg/m³),mass concentration of particles derived from Lorenz-Mie calculation of OPC scattering (μg/m³),mass concentration of particles derived from Lorenz-Mie calculation of OPC scattering (μg/m³)
DateTimeUTC,F1_M11,P_M11,Q1_M11,Q2_M11,T1_M11,T2_M11,T3_M11,T4_M11,T5_M11,U1_M11,ZSPAN_M11,X2_M11,X0_M11,X1_M11
2023-09-30 12:00:00,SystemResetWarning,0828.7,4.99,000.00,028.8,027.3,000.0,037.3,030.5,13.5,0000.0,0005.48,0014.06,0004.53
2023-09-30 12:01:00,SystemResetWarning,0828.8,4.99,000.00,028.8,027.3,000.0,037.3,030.5,13.5,0000.0,0005.45,0013.17,0004.53
2023-09-30 12:02:00,SystemResetWarning,0828.8,5.00,000.00,028.8,027.3,000.0,037.3,030.5,13.5,0000.0,0005.47,0013.19,0004.52
2023-09-30 12:03:00,SystemResetWarning,0828.8,5.01,000.00,028.8,027.3,000.0,037.3,030.5,13.2,0000.0,0005.48,0013.30,0004.53
2023-09-30 12:04:00,SystemResetWarning,0828.7,5.01,000.00,028.9,027.3,000.0,037.3,030.5,13.4,0000.0,0005.51,0013.01,0004.53
2023-09-30 12:05:00,SystemResetWarning,0828.7,4.99,000.00,028.9,027.3,000.0,037.3,030.5,13.8,0000.0,0005.56,0013.39,0004.53
2023-09-30 12:06:00,SystemResetWarning,0828.8,4.99,000.00,028.8,027.3,000.0,037.3,030.5,14.2,0000.0,0005.56,0013.84,0004.53
2023-09-30 12:07:00,SystemResetWarning,0828.8,5.00,000.00,028.8,027.3,000.0,037.3,030.5,14.0,0000.0,0005.54,0013.53,0004.52
2023-09-30 12:08:00,SystemResetWarning,0828.8,5.01,000.00,028.8,027.3,000.0,037.3,030.5,13.7,0000.0,0005.53,0013.22,0004.52
2023-09-30 12:09:00,SystemResetWarning,0828.8,5.01,000.00,028.8,027.3,000.0,037.3,030.5,13.5,0000.0,0005.51,0013.16,0004.52
2023-09-30 12:10:00,SystemResetWarning,0828.8,5.01,000.00,028.8,027.3,000.0,037.3,030.5,13.6,0000.0,0005.55,0013.59,0004.53
2023-09-30 12:11:00,SystemResetWarning,0828.8,4.99,000.00,028.8,027.3,000.0,037.3,030.5,13.6,0000.0,0005.60,0014.88,0004.53
2023-09-30 12:12:00,SystemResetWarning,0828.7,4.99,000.00,028.8,027.3,000.0,037.3,030.4,13.4,0000.0,0005.65,0015.47,0004.53
2023-09-30 12:13:00,SystemResetWarning,0828.8,5.00,000.00,028.8,027.3,000.0,037.3,030.4,13.3,0000.0,0005.67,0015.08,0004.53
2023-09-30 12:14:00,SystemResetWarning,0828.8,5.01,000.00,028.8,027.3,000.0,037.3,030.4,13.3,0000.0,0005.65,0014.62,0004.53
2023-09-30 12:15:00,SystemResetWarning,0828.8,5.01,000.00,028.8,027.3,000.0,037.3,030.4,13.3,0000.0,0005.56,0014.49,0004.51
2023-09-30 12:16:00,SystemResetWarning,0828.7,5.00,000.00,028.8,027.3,000.0,037.3,030.4,13.2,0000.0,0005.52,0014.42,0004.51
2023-09-30 12:17:00,SystemResetWarning,0828.8,5.00,000.00,028.8,027.3,000.0,037.3,030.4,13.2,0000.0,0005.52,0014.22,0004.52
2023-09-30 12:18:00,SystemResetWarning,0828.8,5.00,000.00,028.8,027.3,000.0,037.3,030.4,13.3,0000.0,0005.54,0014.35,0004.52
2023-09-30 12:19:00,SystemResetWarning,0828.8,5.00,000.00,028.8,027.3,000.0,037.3,030.4,13.4,0000.0,0005.53,0014.67,0004.53
2023-09-30 12:20:00,SystemResetWarning,0828.8,5.00,000.00,028.8,027.3,000.0,037.3,030.4,13.3,0000.0,0005.51,0014.62,0004.54
2023-09-30 12:21:00,SystemResetWarning,0828.8,5.00,000.00,028.8,027.3,000.0,037.3,030.4,13.3,0000.0,0005.48,0014.20,0004.54
2023-09-30 12:22:00,SystemResetWarning,0828.9,5.00,000.00,028.8,027.3,000.0,037.3,030.4,13.2,0000.0,0005.41,0013.10,0004.55
2023-09-30 12:23:00,SystemResetWarning,0828.9,5.00,000.00,028.8,027.3,000.0,037.3,030.4,13.0,0000.0,0005.37,0012.93,0004.56
2023-09-30 12:24:00,SystemResetWarning,0828.9,4.99,000.00,028.8,027.3,000.0,037.3,030.4,13.1,0000.0,0005.39,0013.00,0004.58
2023-09-30 12:25:00,SystemResetWarning,0828.9,5.00,000.00,028.8,027.3,000.0,037.3,030.5,14.2,0000.0,0005.45,0014.06,0004.58
2023-09-30 12:26:00,SystemResetWarning,0828.9,5.00,000.00,028.8,027.4,000.0,037.3,030.5,14.3,0000.0,0005.50,0014.43,0004.60
2023-09-30 12:27:00,SystemResetWarning,0828.9,5.00,000.00,028.8,027.4,000.0,037.3,030.5,14.0,0000.0,0005.48,0014.44,0004.61
2023-09-30 12:28:00,SystemResetWarning,0829.0,5.00,000.00,028.8,027.4,000.0,037.3,030.5,13.6,0000.0,0005.47,0014.22,0004.61
2023-09-30 12:29:00,SystemResetWarning,0829.0,5.01,000.00,028.8,027.4,000.0,037.3,030.5,13.1,0000.0,0005.45,0014.11,0004.60
2023-09-30 12:30:00,SystemResetWarning,0829.0,5.01,000.00,028.8,027.4,000.0,037.3,030.5,12.9,0000.0,0005.45,0013.31,0004.61
2023-09-30 12:31:00,SystemResetWarning,0829.0,5.00,000.00,028.9,027.4,000.0,037.3,030.5,12.9,0000.0,0005.49,0013.36,0004.61
2023-09-30 12:32:00,SystemResetWarning,0828.9,4.99,000.00,028.9,027.4,000.0,037.3,030.5,12.9,0000.0,0005.52,0013.28,0004.62
2023-09-30 12:33:00,SystemResetWarning,0828.9,5.00,000.00,028.9,027.4,000.0,037.3,030.5,13.1,0000.0,0005.53,0013.16,0004.62
2023-09-30 12:34:00,SystemResetWarning,0829.0,5.01,000.00,028.9,027.4,000.0,037.3,030.5,12.5,0000.0,0005.56,0012.46,0004.62
2023-09-30 12:35:00,SystemResetWarning,0829.0,5.00,000.00,028.9,027.4,000.0,037.3,030.5,12.7,0000.0,0005.58,0012.48,0004.61
2023-09-30 12:36:00,SystemResetWarning,0829.0,5.01,000.00,028.9,027.4,000.0,037.3,030.5,13.0,0000.0,0005.51,0011.40,0004.61
2023-09-30 12:37:00,SystemResetWarning,0829.0,5.00,000.00,028.9,027.4,000.0,037.3,030.5,13.4,0000.0,0005.48,0011.02,0004.61
2023-09-30 12:38:00,SystemResetWarning,0829.0,4.99,000.00,028.9,027.4,000.0,037.3,030.5,13.6,0000.0,0005.48,0009.89,0004.61
2023-09-30 12:39:00,SystemResetWarning,0829.0,5.00,000.00,028.9,027.4,000.0,037.3,030.5,13.2,0000.0,0005.44,0009.63,0004.60
2023-09-30 12:40:00,SystemResetWarning,0828.9,5.01,000.00,028.9,027.4,000.0,037.3,030.5,12.8,0000.0,0005.45,0010.00,0004.60
2023-09-30 12:41:00,SystemResetWarning,0828.9,5.01,000.00,028.9,027.4,000.0,037.3,030.5,12.7,0000.0,0005.50,0010.07,0004.60
2023-09-30 12:42:00,SystemResetWarning,0829.0,4.99,000.00,028.9,027.4,000.0,037.3,030.5,12.6,0000.0,0005.47,0010.05,0004.61
2023-09-30 12:43:00,SystemResetWarning,0829.0,5.00,000.00,028.9,027.4,000.0,037.3,030.5,13.0,0000.0,0005.48,0010.80,0004.61
2023-09-30 12:44:00,SystemResetWarning,0829.0,4.99,000.00,028.9,027.4,000.0,037.3,030.5,13.0,0000.0,0005.49,0011.61,0004.60
2023-09-30 12:45:00,SystemResetWarning,0829.0,5.00,000.00,028.9,027.4,000.0,037.3,030.5,13.2,0000.0,0005.47,0011.50,0004.60
2023-09-30 12:46:00,SystemResetWarning,0829.0,4.99,000.00,028.9,027.4,000.0,037.4,030.5,13.0,0000.0,0005.44,0011.70,0004.60
2023-09-30 12:47:00,SystemResetWarning,0829.1,5.00,000.00,028.9,027.4,000.0,037.4,030.5,12.9,0000.0,0005.48,0013.49,0004.60
2023-09-30 12:48:00,SystemResetWarning,0829.0,5.00,000.00,028.9,027.4,000.0,037.4,030.5,12.8,0000.0,0005.49,0013.62,0004.59
2023-09-30 12:49:00,SystemResetWarning,0829.0,4.99,000.00,028.9,027.4,000.0,037.3,030.5,12.7,0000.0,0005.53,0013.81,0004.60
2023-09-30 12:50:00,SystemResetWarning,0829.0,5.00,000.00,028.9,027.4,000.0,037.3,030.5,12.8,0000.0,0005.57,0013.84,0004.61
2023-09-30 12:51:00,SystemResetWarning,0829.1,5.01,000.00,028.9,027.4,000.0,037.3,030.5,12.8,0000.0,0005.56,0013.49,0004.62
2023-09-30 12:52:00,SystemResetWarning,0829.0,5.00,000.00,028.9,027.4,000.0,037.3,030.5,12.6,0000.0,0005.49,0013.40,0004.62
2023-09-30 12:53:00,SystemResetWarning,0829.0,5.00,000.00,028.9,027.4,000.0,037.3,030.5,12.6,0000.0,0005.48,0014.14,0004.62
2023-09-30 12:54:00,SystemResetWarning,0829.0,5.00,000.00,028.9,027.4,000.0,037.3,030.5,12.6,0000.0,0005.44,0013.58,0004.61
2023-09-30 12:55:00,SystemResetWarning,0829.0,5.00,000.00,028.9,027.4,000.0,037.3,030.5,12.5,0000.0,0005.41,0012.40,0004.63
2023-09-30 12:56:00,SystemResetWarning,0829.0,5.00,000.00,028.9,027.3,000.0,037.3,030.5,12.6,0000.0,0005.42,0012.75,0004.64
2023-09-30 12:57:00,SystemResetWarning,0829.0,5.00,000.00,028.9,027.4,000.0,037.3,030.5,12.8,0000.0,0005.39,0012.61,0004.63
2023-09-30 12:58:00,SystemResetWarning,0829.0,5.00,000.00,028.9,027.4,000.0,037.3,030.5,12.9,0000.0,0005.36,0011.87,0004.64
2023-09-30 12:59:00,SystemResetWarning,0829.0,5.00,000.00,028.9,027.4,000.0,037.3,030.5,13.2,0000.0,0005.36,0011.66,0004.64
